Location: Ku?niki
(51.4449°N, 17.8974°E)
Time: 01:36:48
(UTC+00:00)

Cosmos 1544 - Pass Details

Date: 18 September 2020
Orbit: 471 x 491 km, 82.5° (Epoch: 23 October)

Event Time Altitude Azimuth Distance (km) Brightness Sun altitude
Rises 17:20:56 0° 185° (S) 2,556 6.7 -4.8°
Reaches altitude 10° 17:23:02 10° 184° (S) 1,677 5.8 -5.2°
Maximum altitude 17:26:42 76° 99° (E) 508 3.0 -5.7°
Drops below altitude 10° 17:30:22 10° 13° (NNE) 1,681 5.8 -6.3°
Sets 17:32:29 0° 12° (NNE) 2,563 6.7 -6.6°
